Home   Weather   Allschwil   Past weeks

Flag for Switzerland Past Weather in Allschwil, Basel-Land, Switzerland — Yesterday and Last 2 Weeks

Now
28 °F

Fog.


Feels Like: 28 °F
Forecast: 22 / 38 °F
Wind: 1 mph from Southeast

Location: Bale-Mulhouse

Current Time: Dec 6, 2016 at 11:08:26 pm

Latest Report: Dec 6, 2016 at 10:00 pm


Visibility: 0 mi

Pressure: 30.57 "Hg

Humidity: 99%

Dew Point: 28 °F

Location of AllschwilLocation

Past Weather in Allschwil — Graph

°F

Allschwil Temperature Yesterday

Maximum temperature yesterday: 43 °F (at 3:00 pm)
Minimum temperature yesterday: 22 °F (at 5:00 am)
Average temperature yesterday: 29 °F

High & Low Weather Summary for the Past Weeks

 TemperatureHumidityPressure
High53 °F (Nov 22, 2:00 pm)100% (Nov 24, 1:00 am)30.63 "Hg (Nov 24, 1:00 am)
Low21 °F (Nov 29, 4:00 am)43% (Nov 28, 2:00 pm)29.63 "Hg (Nov 21, 7:00 pm)
Average36 °F89%30.22 "Hg
* Reported Nov 21 7:00 pm — Dec 6 7:00 pm, Allschwil, Weather by CustomWeather, © 2016

Note: Actual official high and low records may vary slightly from our data, if they occured in-between our weather recording intervals... More about our weather records

Advertising

Allschwil Weather History for the Previous 24 Hours

Scroll right to see more
 ConditionsComfort  
Time TempWeatherWind HumidityBarometerVisibility
7:00 pm
Tue, Dec 6
29 °FFog.5 mph100%30.55 "Hg0 mi
6:00 pm29 °FFog.6 mph100%30.54 "Hg0 mi
5:00 pm29 °FFog.7 mph100%30.54 "Hg0 mi
4:00 pm30 °FFog.7 mph100%30.51 "Hg0 mi
3:00 pm31 °FFog.6 mph100%30.50 "Hg0 mi
2:00 pm31 °FIce fog.7 mph100%30.49 "Hg0 mi
1:00 pm31 °FFog.7 mph100%30.50 "Hg0 mi
12:00 pm29 °FFog.7 mph100%30.50 "Hg0 mi
11:00 am28 °FIce fog.6 mph100%30.51 "Hg0 mi
10:00 am27 °FFog.5 mph99%30.51 "Hg0 mi
9:00 am25 °FFog.2 mph98%30.50 "Hg0 mi
8:00 am26 °FFog.3 mph98%30.49 "Hg0 mi
7:00 am26 °FFog.6 mph97%30.48 "Hg0 mi
6:00 am27 °FFog.6 mph98%30.47 "Hg2 mi
5:00 am27 °FFog.5 mph98%30.46 "Hg0 mi
4:00 am28 °FIce fog.3 mph98%30.45 "Hg1 mi
3:00 am28 °FIce fog.5 mph98%30.45 "Hg1 mi
2:00 am28 °FOvercast.3 mph96%30.44 "Hg2 mi
1:00 am29 °FPassing clouds.5 mph96%30.44 "Hg2 mi
12:00 am29 °FFog.5 mph96%30.43 "Hg1 mi
11:00 pm
Mon, Dec 5
30 °FFog.6 mph96%30.43 "Hg1 mi
Weather by CustomWeather, © 2016

See weather overviewHow to use our weather pages